| time (UTC) | temp C | wind direction | speed KPH | gust KPH | rain 1hr cm | rain 24hr cm | rain mn cm | humidity % | barometer mb |
| 20260510151554 | 14 | 85 | 3.2 | 11.3 | 0.00 | 0.00 | 0.00 | 56 | 1016.9 |
| 20260510150052 | 13 | 88 | 4.8 | 11.3 | 0.00 | 0.00 | 0.00 | 56 | 1016.7 |
| 20260510144550 | 13 | 84 | 4.8 | 16.1 | 0.00 | 0.00 | 0.00 | 56 | 1016.5 |
| 20260510143047 | 13 | 84 | 3.2 | 11.3 | 0.00 | 0.00 | 0.00 | 55 | 1016.3 |
| 20260510141545 | 13 | 96 | 3.2 | 11.3 | 0.00 | 0.00 | 0.00 | 55 | 1016.0 |
| 20260510140045 | 13 | 95 | 6.4 | 11.3 | 0.00 | 0.00 | 0.00 | 55 | 1015.9 |
| 20260510134543 | 13 | 88 | 3.2 | 9.7 | 0.00 | 0.00 | 0.00 | 53 | 1015.8 |
| 20260510133039 | 12 | 90 | 1.6 | 8.0 | 0.00 | 0.00 | 0.00 | 53 | 1015.5 |
| 20260510131537 | 12 | 13 | 4.8 | 12.9 | 0.00 | 0.00 | 0.00 | 54 | 1015.2 |
| 20260510130036 | 12 | 79 | 4.8 | 8.0 | 0.00 | 0.00 | 0.00 | 52 | 1015.0 |
| 20260510124536 | 12 | 77 | 3.2 | 8.0 | 0.00 | 0.00 | 0.00 | 53 | 1014.8 |
| 20260510123032 | 12 | 69 | 3.2 | 8.0 | 0.00 | 0.00 | 0.00 | 54 | 1014.6 |
| 20260510121531 | 12 | 83 | 3.2 | 9.7 | 0.00 | 0.00 | 0.00 | 51 | 1014.5 |
| 20260510120030 | 12 | 21 | 1.6 | 6.4 | 0.00 | 0.00 | 0.00 | 47 | 1014.2 |
| 20260510114527 | 11 | 17 | 0.0 | 3.2 | 0.00 | 0.00 | 0.00 | 37 | 1013.8 |
| 20260510113035 | 11 | 18 | 0.0 | 8.0 | 0.00 | 0.00 | 0.00 | 31 | 1013.4 |
| 20260510111524 | 11 | 11 | 0.0 | 1.6 | 0.00 | 0.00 | 0.00 | 28 | 1013.4 |
| 20260510110032 | 11 | 11 | 3.2 | 6.4 | 0.00 | 0.00 | 0.00 | 20 | 1013.2 |
| 20260510104520 | 11 | 11 | 0.0 | 3.2 | 0.00 | 0.00 | 0.00 | 24 | 1013.0 |
| 20260510103020 | 11 | 11 | 0.0 | 0.0 | 0.00 | 0.00 | 0.00 | 25 | 1012.9 |
| 20260510101515 | 11 | 11 | 0.0 | 3.2 | 0.00 | 0.00 | 0.00 | 27 | 1012.6 |
| 20260510100013 | 11 | 11 | 0.0 | 0.0 | 0.00 | 0.00 | 0.00 | 25 | 1012.3 |
| 20260510094510 | 11 | 11 | 0.0 | 0.0 | 0.00 | 0.00 | 0.00 | 29 | 1012.1 |
| 20260510093008 | 12 | 11 | 3.2 | 4.8 | 0.00 | 0.00 | 0.00 | 34 | 1011.9 |
| 20260510091506 | 12 | 11 | 0.0 | 0.0 | 0.00 | 0.00 | 0.00 | 47 | 1011.7 |
| 20260510090004 | 12 | 11 | 0.0 | 6.4 | 0.00 | 0.00 | 0.00 | 53 | 1011.3 |
| 20260510084503 | 12 | 5 | 0.0 | 3.2 | 0.00 | 0.00 | 0.00 | 58 | 1012.2 |
| 20260510083111 | 13 | 5 | 0.0 | 3.2 | 0.00 | 0.00 | 0.00 | 58 | 1011.5 |
| 20260510081609 | 13 | 22 | 0.0 | 0.0 | 0.00 | 0.00 | 0.00 | 58 | 1011.2 |
| 20260510080057 | 13 | 22 | 0.0 | 1.6 | 0.00 | 0.00 | 0.00 | 58 | 1010.8 |
| 20260510074602 | 13 | 17 | 1.6 | 8.0 | 0.00 | 0.00 | 0.00 | 57 | 1010.6 |
| 20260510073052 | 13 | 14 | 0.0 | 9.7 | 0.00 | 0.00 | 0.00 | 57 | 1010.6 |
| 20260510071549 | 13 | 9 | 6.4 | 12.9 | 0.00 | 0.00 | 0.00 | 55 | 1010.7 |
| 20260510070047 | 13 | 12 | 1.6 | 8.0 | 0.00 | 0.00 | 0.00 | 57 | 1010.4 |
| 20260510064559 | 14 | 9 | 4.8 | 8.0 | 0.00 | 0.00 | 0.00 | 57 | 1010.4 |
| 20260510063043 | 14 | 360 | 4.8 | 9.7 | 0.00 | 0.00 | 0.00 | 54 | 1010.5 |
| 20260510061541 | 14 | 5 | 4.8 | 9.7 | 0.00 | 0.00 | 0.00 | 55 | 1010.3 |
| 20260510060041 | 15 | 17 | 0.0 | 12.9 | 0.00 | 0.00 | 0.00 | 54 | 1010.1 |
| 20260510054537 | 15 | 16 | 6.4 | 12.9 | 0.00 | 0.00 | 0.00 | 54 | 1010.0 |
| 20260510053034 | 15 | 11 | 9.7 | 14.5 | 0.00 | 0.00 | 0.00 | 55 | 1009.7 |
| 20260510051532 | 15 | 14 | 9.7 | 14.5 | 0.00 | 0.00 | 0.00 | 54 | 1009.6 |
| 20260510050029 | 16 | 349 | 11.3 | 17.7 | 0.00 | 0.00 | 0.00 | 52 | 1009.3 |
| 20260510044533 | 16 | 13 | 11.3 | 14.5 | 0.00 | 0.00 | 0.00 | 54 | 1009.3 |
| 20260510043022 | 16 | 261 | 1.6 | 6.4 | 0.00 | 0.00 | 0.00 | 47 | 1008.9 |
| 20260510041519 | 16 | 360 | 0.0 | 6.4 | 0.00 | 0.00 | 0.00 | 39 | 1008.7 |
| 20260510040015 | 17 | 226 | 1.6 | 9.7 | 0.00 | 0.00 | 0.00 | 33 | 1008.7 |
| 20260510034512 | 17 | 236 | 6.4 | 12.9 | 0.00 | 0.00 | 0.00 | 30 | 1008.5 |
| 20260510033007 | 17 | 360 | 3.2 | 9.7 | 0.00 | 0.00 | 0.00 | 34 | 1008.3 |
| 20260510031503 | 17 | 235 | 3.2 | 9.7 | 0.00 | 0.00 | 0.00 | 36 | 1008.1 |
| 20260510030059 | 17 | 250 | 4.8 | 14.5 | 0.00 | 0.00 | 0.00 | 42 | 1007.8 |
| 20260510024554 | 18 | 360 | 6.4 | 12.9 | 0.00 | 0.00 | 0.00 | 44 | 1007.8 |
| 20260510023052 | 17 | 360 | 3.2 | 9.7 | 0.00 | 0.00 | 0.00 | 47 | 1007.7 |
| 20260510021545 | 18 | 360 | 6.4 | 9.7 | 0.00 | 0.00 | 0.00 | 50 | 1007.5 |
| 20260510020041 | 18 | 360 | 6.4 | 11.3 | 0.00 | 0.00 | 0.00 | 53 | 1007.1 |
| 20260510014536 | 18 | 360 | 8.0 | 14.5 | 0.00 | 0.03 | 0.00 | 55 | 1006.8 |
| 20260510013031 | 18 | 360 | 8.0 | 14.5 | 0.00 | 0.03 | 0.00 | 55 | 1006.6 |
| 20260510011528 | 18 | 360 | 9.7 | 16.1 | 0.00 | 0.03 | 0.00 | 56 | 1006.4 |
| 20260510010023 | 18 | 360 | 8.0 | 14.5 | 0.00 | 0.03 | 0.00 | 56 | 1006.1 |
| 20260510004519 | 18 | 360 | 8.0 | 11.3 | 0.00 | 0.03 | 0.00 | 57 | 1006.2 |
| 20260510003022 | 19 | 242 | 6.4 | 12.9 | 0.00 | 0.03 | 0.00 | 57 | 1005.9 |
| 20260510001509 | 20 | 242 | 8.0 | 16.1 | 0.00 | 0.03 | 0.00 | 55 | 1005.8 |
| 20260510000005 | 20 | 360 | 8.0 | 29.0 | 0.00 | 0.03 | 0.00 | 55 | 1005.8 |
| 20260509234643 | 20 | 223 | 11.3 | 17.7 | 0.00 | 0.03 | 0.00 | 54 | 1005.8 |
| 20260509233056 | 21 | 326 | 9.7 | 22.5 | 0.00 | 0.03 | 0.00 | 53 | 1005.5 |
| 20260509231551 | 21 | 234 | 14.5 | 25.7 | 0.00 | 0.03 | 0.00 | 53 | 1005.5 |
| 20260509230048 | 21 | 196 | 11.3 | 22.5 | 0.00 | 0.03 | 0.00 | 52 | 1005.4 |
| 20260509224543 | 21 | 246 | 9.7 | 22.5 | 0.00 | 0.08 | 0.00 | 49 | 1005.2 |
| 20260509223039 | 22 | 245 | 11.3 | 32.2 | 0.00 | 0.08 | 0.00 | 47 | 1005.0 |
| 20260509221534 | 22 | 190 | 9.7 | 25.7 | 0.00 | 0.08 | 0.00 | 48 | 1005.0 |
| 20260509220030 | 22 | 360 | 12.9 | 29.0 | 0.00 | 0.08 | 0.00 | 47 | 1004.9 |
| 20260509214525 | 22 | 237 | 17.7 | 32.2 | 0.00 | 0.13 | 0.00 | 46 | 1004.7 |
| 20260509213021 | 22 | 207 | 14.5 | 25.7 | 0.00 | 0.13 | 0.00 | 49 | 1004.8 |
| 20260509211517 | 21 | 217 | 14.5 | 29.0 | 0.00 | 0.13 | 0.00 | 49 | 1004.9 |
| 20260509210012 | 22 | 360 | 20.9 | 35.4 | 0.00 | 0.13 | 0.00 | 49 | 1004.7 |
| 20260509204508 | 22 | 360 | 16.1 | 32.2 | 0.00 | 0.13 | 0.00 | 49 | 1004.9 |
| 20260509203004 | 21 | 360 | 17.7 | 30.6 | 0.00 | 0.13 | 0.00 | 51 | 1005.1 |
| 20260509201622 | 21 | 360 | 17.7 | 30.6 | 0.00 | 0.13 | 0.00 | 51 | 1005.2 |
| 20260509194550 | 21 | 360 | 14.5 | 29.0 | 0.00 | 0.13 | 0.00 | 52 | 1005.5 |
| 20260509193052 | 21 | 360 | 12.9 | 25.7 | 0.00 | 0.13 | 0.00 | 52 | 1005.7 |
| 20260509191553 | 21 | 190 | 16.1 | 25.7 | 0.00 | 0.13 | 0.00 | 53 | 1005.8 |
| 20260509190038 | 20 | 360 | 12.9 | 29.0 | 0.00 | 0.13 | 0.00 | 52 | 1005.9 |
| 20260509184535 | 20 | 360 | 17.7 | 32.2 | 0.00 | 0.13 | 0.00 | 52 | 1006.1 |
| 20260509183028 | 20 | 360 | 16.1 | 25.7 | 0.00 | 0.13 | 0.00 | 51 | 1005.9 |
| 20260509181524 | 20 | 360 | 16.1 | 24.1 | 0.00 | 0.13 | 0.00 | 47 | 1005.9 |
| 20260509180020 | 20 | 360 | 14.5 | 24.1 | 0.00 | 0.13 | 0.00 | 44 | 1006.0 |
| 20260509174515 | 19 | 360 | 14.5 | 24.1 | 0.00 | 0.13 | 0.00 | 44 | 1006.1 |
| 20260509173010 | 18 | 360 | 12.9 | 29.0 | 0.00 | 0.13 | 0.00 | 43 | 1006.3 |
| 20260509171506 | 18 | 360 | 14.5 | 25.7 | 0.00 | 0.13 | 0.00 | 36 | 1006.4 |
| 20260509170002 | 18 | 360 | 14.5 | 29.0 | 0.00 | 0.13 | 0.00 | 39 | 1006.5 |
| 20260509164607 | 18 | 360 | 12.9 | 25.7 | 0.00 | 0.13 | 0.00 | 30 | 1006.7 |
| 20260509163052 | 17 | 360 | 12.9 | 29.0 | 0.00 | 0.13 | 0.00 | 29 | 1006.8 |
| 20260509161556 | 17 | 360 | 16.1 | 24.1 | 0.00 | 0.13 | 0.00 | 22 | 1006.6 |
| 20260509160045 | 17 | 248 | 14.5 | 22.5 | 0.00 | 0.13 | 0.00 | 23 | 1006.6 |
| 20260509154539 | 17 | 360 | 14.5 | 24.1 | 0.00 | 0.13 | 0.00 | 20 | 1006.6 |
| 20260509153037 | 17 | 200 | 14.5 | 24.1 | 0.00 | 0.13 | 0.00 | 21 | 1006.5 |